Regional Weather Roundup
Issued by NWS

Home | Current Version | Previous Version | Graphics & Text | Print | Product List | Glossary On
Versions: 1 2 3 4 5 6 7 8 9 10 11 12 13 14 15 16 17 18 19 20 21 22 23 24 25 26 27 28 29 30 31 32 33 34 35 36 37 38 39 40 41 42 43 44 45 46 47 48 49 50
000
ASUS43 KLOT 060108
RWRIL

ILLINOIS REGIONAL WEATHER ROUNDUP
NATIONAL WEATHER SERVICE CHICAGO/ROMEOVILLE IL
800 PM CDT SUN JUL 05 2015

NOTE: "FAIR" INDICATES FEW OR NO CLOUDS BELOW 12,000 FEET WITH NO
SIGNIFICANT WEATHER AND/OR OBSTRUCTIONS TO VISIBILITY.

* THESE STATIONS ARE NOT UNDER NWS QUALITY CONTROL. THEY ALSO MAY NOT
  REPORT WEATHER SUCH AS PRECIPITATION OR FOG.

ILZ001-002-007-009-015-016-024-060200-
NORTHWEST ILLINOIS

CITY           SKY/WX    TMP DP  RH WIND       PRES   REMARKS
MOLINE         MOCLDY    78  66  66 SE6       29.97F HX  80
STERLING*      CLEAR     75  66  73 S3        30.00S
SAVANNA*       PTCLDY    74  66  75 SE5       29.98F
$$

ILZ003-004-008-010-011-017-018-060200-
NORTH CENTRAL ILLINOIS

CITY           SKY/WX    TMP DP  RH WIND       PRES   REMARKS
ROCKFORD       PTCLDY    77  63  61 S8        30.01F
FREEPORT*      CLEAR     73  65  75 S6        30.02S
ROCHELLE*      CLEAR     73  66  78 SE5       30.01F
DE KALB*       CLEAR     73  63  72 SE7       30.03S
PERU*          CLEAR     77  63  61 S7        30.01F
$$

ILZ005-006-012>014-019>023-060200-
NORTHEAST ILLINOIS

CITY           SKY/WX    TMP DP  RH WIND       PRES   REMARKS
CHICAGO-OHARE  CLEAR     78  60  53 S9        30.01F
CHICAGO-MIDWAY CLEAR     82  60  47 S8        30.02S HX  82
AURORA         CLEAR     77  63  61 S5        30.02F
LANSING*       CLEAR     75  58  55 S6        30.03S
JOLIET*        CLEAR     78  64  62 SE5       30.02F
WAUKEGAN       CLEAR     72  60  66 SE6       30.01S
DUPAGE AIRPORT CLEAR     75  63  66 S5        30.02S
KANKAKEE*      CLEAR     76  66  71 CALM      30.04S
WHEELING       CLEAR     80  59  48 SW5       30.02F HX  81
MORRIS*        CLEAR     77  64  63 S5        30.01S
ROMEOVILLE*    CLEAR     75  61  61 S6        30.02F
NORTHERLY ISL    N/A     69  62  78 S5          N/A
$$

LMZ740>746-060200-
SOUTHERN LAKE MICHIGAN

STATION/POSITION SKY/WX   TEMP    WIND        PRES    VSBY  WAVE
                          AIR SEA DIR/SP/G                  HT/PER
                          (F)     (DEG/KT/KT) (MB)    (MI)  (FT/S)
HARRISON CRIB              71     100/ 14/ 16   N/A
BURNHAM HARBOR             69     170/  3/  5   N/A
CALUMET HARBOR             73      90/  6/  8   N/A
BURNS HARBOR               72      60/  5/  7 1017.6F
MICHIGAN CITY              70      40/  8/ 10   N/A
MICHIGAN CITY 6N           69 68   80/  4/  6   N/A           1
ST. JOSEPH                 70 68                N/A           0
$$

ILZ025>027-034>036-040-047-049-050-058-095>099-060200-
WEST-CENTRAL ILLINOIS

CITY           SKY/WX    TMP DP  RH WIND       PRES   REMARKS
QUINCY         PTCLDY    79  69  71 SE6       29.98S HAZE    HX  81
GALESBURG*     MOCLDY    76  67  73 SE3       29.99F
MACOMB*        MOCLDY    78  69  75 SE5       30.01S HX  80
JACKSONVILLE*  MOCLDY    80  71  75 SE3       29.99S HAZE    HX  83
PITTSFIELD*    MOCLDY    79  70  74 E3        30.00S HX  81
$$

ILZ028>032-037-038-041>044-048-051>054-059>061-060200-
CENTRAL ILLINOIS

CITY           SKY/WX    TMP DP  RH WIND       PRES   REMARKS
PONTIAC        CLEAR     75  69  80 SE5       30.03F
BLOOMINGTON    CLEAR     76  68  76 S6        30.04F
DECATUR        CLEAR     77  66  68 SE3       30.02F
PEORIA         CLEAR     79  65  62 SE3       30.01S HX  81
LACON*         CLEAR     76  65  68 SE3       30.00S
LINCOLN*       CLEAR     77  68  72 SE3       30.01F
SPRINGFIELD    PTCLDY    78  68  71 SE6       30.00F HX  80
TAYLORVILLE    CLEAR     73  68  83 SE3       30.02R
$$

ILZ033-039-045-046-055>057-062-063-060200-
EAST-CENTRAL ILLINOIS

CITY           SKY/WX    TMP DP  RH WIND       PRES   REMARKS
CHAMPAIGN      CLEAR     76  71  85 CALM      30.04R
DANVILLE*      CLEAR     73  68  87 CALM      30.01S FOG
RANTOUL*       CLEAR     78  69  74 CALM      30.04R HX  80
MATTOON        CLEAR     76  70  82 CALM      30.03R HAZE
PARIS*         CLEAR     76  69  79 CALM      30.04S
$$

ILZ079-100>102-060200-
SOUTHWEST ILLINOIS

CITY           SKY/WX    TMP DP  RH WIND       PRES   REMARKS
ALTON          PTCLDY    77 N/A N/A CALM      30.01
BELLEVILLE     CLEAR     78  69  74 SE5       30.00R HX  81
CAHOKIA*       CLEAR     81  67  62 S5        30.00R HX  83
SPARTA*        CLEAR     79  67  68 SE3       30.02S HX  81
$$

ILZ064>066-069>071-074>076-080>082-084>086-088>090-092>094-060200-
SOUTH-CENTRAL ILLINOIS

CITY           SKY/WX    TMP DP  RH WIND       PRES   REMARKS
CARBONDALE     CLEAR     79  70  74 SE3       30.02R HX  82
CAIRO*         CLEAR     78  70  75 SE3       30.03R HX  81
EFFINGHAM*     CLEAR     78  67  71 CALM      30.05R
MARION         CLEAR     79  70  73 CALM      30.03S HX  81
MT. VERNON     CLEAR     75  66  73 CALM      30.03S
CENTRALIA*     CLEAR     76  66  73 CALM      30.02S
SALEM*         CLEAR     77  69  74 CALM      30.03R
$$

ILZ067-068-072-073-078-083-087-091-060200-
SOUTHEAST ILLINOIS

CITY           SKY/WX    TMP DP  RH WIND       PRES   REMARKS
LAWRENCEVILLE  PTCLDY    78  68  71 SE3       30.04R HX  80
FLORA*         CLEAR     77  71  80 CALM      30.03S
FAIRFIELD*     CLEAR     77  71  82 CALM      30.03R
HARRISBURG*    CLEAR     79  71  75 CALM      30.04S HX  82
ROBINSON*      CLOUDY    78  70  75 S3        30.04R HX  81
CARMI*         CLEAR     80  67  66 CALM      30.02S HX  82
$$

ABBREVIATIONS USED IN REMARKS
   TC - TEMPERATURE IN CELSIUS
  WCI - WIND CHILL INDEX
   HX - HEAT INDEX
  VSB - VISIBILITY
$$




USA.gov is the U.S. government's official web portal to all federal, state and local government web resources and services.